This is the latest recevied weather packets stored in our database for station/object SP9MUF-14. If no packets are shown the sender has not sent any weather packets the latest 10 day(s).
| Time | Temp. | Humidity | Pressure | Rain* | Wind** | Luminosity | Snow |
|---|---|---|---|---|---|---|---|
| 1787920861 | 27.78° C | 34% | 1014.9 hPa | 0 mm | - | 416 W/m² | - |
| 1787920559 | 28.89° C | 34% | 1015 hPa | 0 mm | - | 262 W/m² | - |
| 1787920258 | 28.89° C | 35% | 1015.2 hPa | 0 mm | - | 502 W/m² | - |
| 1787919954 | 28.89° C | 34% | 1015.2 hPa | 0 mm | - | 540 W/m² | - |
| 1787919652 | 28.89° C | 33% | 1015.3 hPa | 0 mm | - | 574 W/m² | - |
| 1787919349 | 28.89° C | 34% | 1015.2 hPa | 0 mm | - | 574 W/m² | - |
| 1787919048 | 27.78° C | 35% | 1015.4 hPa | 0 mm | - | 608 W/m² | - |
| 1787918745 | 27.78° C | 37% | 1015.4 hPa | 0 mm | - | 628 W/m² | - |
| 1787918443 | 27.78° C | 37% | 1015.5 hPa | 0 mm | - | 467 W/m² | - |
| 1787918141 | 27.78° C | 37% | 1015.7 hPa | 0 mm | - | 481 W/m² | - |
| 1787917838 | 26.67° C | 38% | 1015.6 hPa | 0 mm | - | 451 W/m² | - |
| 1787917536 | 26.67° C | 38% | 1015.7 hPa | 0 mm | - | 470 W/m² | - |
| 1787917234 | 26.67° C | 39% | 1015.9 hPa | 0 mm | - | 543 W/m² | - |
| 1787916932 | 27.78° C | 38% | 1016 hPa | 0 mm | - | 427 W/m² | - |
| 1787916629 | 27.78° C | 40% | 1015.9 hPa | 0 mm | - | 459 W/m² | - |
| 1787916327 | 27.78° C | 38% | 1016.1 hPa | 0 mm | - | 439 W/m² | - |
| 1787916025 | 27.78° C | 37% | 1013.7 hPa | 0 mm | - | 535 W/m² | - |
| 1787915723 | 26.67° C | 38% | 1016.2 hPa | 0 mm | - | 576 W/m² | - |
| 1787915421 | 26.67° C | 39% | 1016.4 hPa | 0 mm | - | 620 W/m² | - |
| 1787915118 | 26.67° C | 39% | 1016.4 hPa | 0 mm | - | 558 W/m² | - |
| 1787914816 | 26.67° C | 40% | 1016.3 hPa | 0 mm | - | 617 W/m² | - |
| 1787914516 | 26.67° C | 40% | 1016.6 hPa | 0 mm | - | 586 W/m² | - |
| 1787914212 | 26.67° C | 39% | 1016.7 hPa | 0 mm | - | 599 W/m² | - |
| 1787913909 | 26.67° C | 40% | 1016.8 hPa | 0 mm | - | 640 W/m² | - |
| 1787913002 | 25.56° C | 42% | 1016.9 hPa | 0 mm | - | 617 W/m² | - |
* Rain latest hour (hover to see other rain measurements)
** Current wind speed in m/s (hover to see current wind gust speed)